Vertical_Velocity
-2 -11 -5 -3 -2 -2 -1 0 -1 -1 -2 1 5 3 2 1 -0 2 -3 -2 1 -1
-4 -3 -2 -1 0 -0 -0 -3 -4 0 2 6 4 1 1 2 0 2 1 -2 1 -1
-0 3 2 0 -2 -2 -2 -2 -3 -2 6 6 4 -3 -1 -2 -0 3 -0 -1 -2 -3
1 -4 -5 -2 -0 -2 -5 -4 -3 -0 1 1 4 -2 1 0 4 0 0 3 -1 -2
-2 -5 -3 -3 -3 -1 -2 -1 1 -0 -0 2 -1 1 1 4 4 -4 1 2 1 -0
-3 -5 -2 2 2 -1 -3 -2 1 -0 -1 2 7 1 2 1 -4 1 -0 -0 -0 0
-3 -1 2 1 0 -1 -1 -1 -2 -1 -3 -2 -2 -3 5 -2 1 1 -1 1 1 1
0 1 3 2 -0 -2 -2 -1 -2 1 -1 -1 3 1 2 3 0 -2 -1 -0 0 0
1 0 3 -1 -3 -1 -2 -1 -2 -1 0 -1 0 3 0 -1 -2 -2 -1 -3 -2 -1
-0 -1 -2 -2 -1 0 -2 -1 1 0 -0 -1 1 1 -1 -5 -2 -1 -1 -1 -1 -1
-2 -2 1 -2 -2 -0 -0 1 -0 -1 -1 -0 -1 -1 -2 -3 -1 -1 -0 -0 -2 -1
-1 -2 -3 -1 0 -0 -1 0 -2 -0 -1 0 -0 -2 -2 -2 -1 -1 -1 -2 -1 -1
-3 -2 -1 2 2 -2 -1 -0 1 0 2 -0 -0 -1 -1 -1 -2 -2 -3 -1 0 0
1 -1 1 -2 -1 -3 -1 -1 0 0 1 -1 -1 -1 -1 -2 -2 -2 -2 -2 -1 0
Height
1566 1566 1564 1562 1560 1557 1553 1549 1546 1542 1539 1537 1535 1533 1530 1527 1526 1525 1523 1521 1519 1516
1563 1563 1560 1558 1555 1551 1548 1544 1540 1536 1534 1533 1530 1527 1525 1523 1522 1521 1519 1516 1514 1512
1560 1558 1556 1553 1550 1547 1543 1539 1535 1532 1530 1528 1525 1523 1521 1519 1518 1517 1515 1512 1509 1507
1557 1555 1552 1548 1545 1542 1539 1535 1530 1526 1524 1521 1520 1517 1515 1514 1513 1511 1509 1507 1504 1501
1553 1551 1548 1544 1541 1538 1534 1529 1524 1520 1517 1515 1513 1513 1510 1509 1508 1507 1504 1501 1498 1495
1549 1546 1543 1540 1537 1533 1529 1524 1520 1516 1513 1511 1508 1507 1506 1505 1504 1501 1499 1496 1492 1487
1544 1541 1539 1536 1532 1528 1524 1519 1515 1512 1509 1506 1504 1502 1503 1501 1499 1497 1494 1490 1485 1480
1539 1537 1534 1531 1527 1523 1519 1515 1512 1508 1505 1503 1501 1499 1498 1497 1495 1491 1488 1483 1479 1473
1534 1531 1529 1525 1522 1517 1514 1511 1508 1505 1502 1500 1498 1497 1495 1493 1490 1486 1481 1477 1472 1466
1528 1526 1523 1520 1516 1512 1509 1506 1503 1501 1498 1497 1495 1493 1491 1488 1485 1481 1476 1471 1465 1460
1522 1520 1517 1514 1511 1508 1503 1501 1499 1497 1495 1493 1492 1489 1487 1483 1480 1476 1471 1466 1461 1457
1518 1514 1511 1509 1505 1503 1499 1497 1495 1493 1492 1490 1488 1485 1482 1479 1476 1472 1467 1462 1458 1454
1511 1508 1505 1503 1500 1497 1495 1493 1491 1490 1488 1486 1484 1481 1478 1475 1471 1467 1463 1459 1454 1449
1504 1501 1498 1497 1495 1492 1490 1488 1486 1485 1484 1482 1480 1477 1474 1471 1468 1464 1460 1455 1451 1446